�������l�o���
Date,Time,MP-1(��Sv/h),MP-2(��Sv/h),MP-3(��Sv/h),MP-4(��Sv/h),MP-5(��Sv/h),MP-6(��Sv/h),MP-7(��Sv/h),MP-8(��Sv/h),����,����(m/s),���J
2020/09/16,00:00,0.663,0.943,0.607,1.163,0.832,0.385,0.672,0.634,�k�k��,2.2,��
2020/09/16,00:10,0.664,0.945,0.607,1.164,0.833,0.385,0.672,0.634,�k�k��,3.0,��
2020/09/16,00:20,0.663,0.943,0.606,1.164,0.832,0.384,0.672,0.633,�k��,3.5,��
2020/09/16,00:30,0.662,0.944,0.608,1.166,0.833,0.385,0.672,0.632,�k�k��,4.1,��
2020/09/16,00:40,0.663,0.942,0.607,1.164,0.833,0.384,0.673,0.632,�k��,3.5,��
2020/09/16,00:50,0.663,0.944,0.609,1.163,0.834,0.385,0.673,0.633,���k��,2.6,��
2020/09/16,01:00,0.663,0.943,0.608,1.165,0.832,0.385,0.672,0.634,�k��,3.2,��
2020/09/16,01:10,0.663,0.944,0.608,1.167,0.834,0.385,0.671,0.631,�k��,3.2,��
2020/09/16,01:20,0.663,0.942,0.608,1.164,0.831,0.385,0.673,0.633,�k��,2.9,��
2020/09/16,01:30,0.663,0.942,0.606,1.164,0.831,0.385,0.673,0.633,�k��,3.0,��
2020/09/16,01:40,0.663,0.942,0.608,1.164,0.833,0.386,0.672,0.633,�k��,3.5,��
2020/09/16,01:50,0.662,0.940,0.606,1.165,0.835,0.387,0.671,0.631,�k��,2.6,��
2020/09/16,02:00,0.661,0.941,0.606,1.164,0.833,0.386,0.673,0.634,�k��,2.8,��
2020/09/16,02:10,0.661,0.941,0.606,1.165,0.831,0.385,0.673,0.632,�k�k��,2.6,��
2020/09/16,02:20,0.662,0.940,0.606,1.166,0.833,0.386,0.672,0.633,�k��,3.0,��
2020/09/16,02:30,0.662,0.943,0.607,1.164,0.833,0.384,0.670,0.634,�k��,2.9,��
2020/09/16,02:40,0.664,0.941,0.606,1.165,0.832,0.385,0.673,0.633,�k�k��,2.2,��
2020/09/16,02:50,0.663,0.941,0.607,1.164,0.831,0.385,0.671,0.632,�k��,2.6,��
2020/09/16,03:00,0.663,0.941,0.607,1.166,0.832,0.385,0.674,0.633,�k��,2.8,��
2020/09/16,03:10,0.663,0.940,0.606,1.164,0.833,0.385,0.670,0.633,�k��,2.5,��
2020/09/16,03:20,0.662,0.940,0.606,1.166,0.834,0.385,0.672,0.631,�k�k��,2.6,��
2020/09/16,03:30,0.664,0.943,0.606,1.163,0.832,0.384,0.672,0.632,�k��,2.6,��
2020/09/16,03:40,0.662,0.940,0.606,1.163,0.833,0.385,0.673,0.630,�k��,2.6,��
2020/09/16,03:50,0.661,0.942,0.607,1.165,0.832,0.384,0.674,0.632,�k��,2.6,��
2020/09/16,04:00,0.662,0.941,0.606,1.163,0.831,0.384,0.673,0.633,�k�k��,2.3,��
2020/09/16,04:10,0.661,0.938,0.607,1.163,0.831,0.384,0.672,0.633,�k�k��,2.3,��
2020/09/16,04:20,0.663,0.941,0.605,1.166,0.834,0.385,0.673,0.633,�k�k��,2.6,��
2020/09/16,04:30,0.661,0.940,0.607,1.161,0.833,0.383,0.674,0.632,�k��,3.5,��
2020/09/16,04:40,0.664,0.941,0.608,1.167,0.832,0.384,0.674,0.632,�k��,3.5,��
2020/09/16,04:50,0.662,0.943,0.607,1.165,0.833,0.383,0.672,0.634,�k��,3.4,��
2020/09/16,05:00,0.662,0.943,0.606,1.166,0.833,0.385,0.671,0.633,�k��,3.5,��
2020/09/16,05:10,0.662,0.941,0.605,1.162,0.831,0.385,0.672,0.632,�k��,4.0,��
2020/09/16,05:20,0.662,0.941,0.605,1.164,0.832,0.385,0.673,0.632,�k��,3.5,��
2020/09/16,05:30,0.663,0.940,0.606,1.165,0.831,0.384,0.672,0.633,�k��,4.0,��
2020/09/16,05:40,0.662,0.942,0.606,1.165,0.834,0.384,0.672,0.632,�k�k��,3.4,��
2020/09/16,05:50,0.662,0.942,0.606,1.166,0.832,0.384,0.673,0.633,�k�k��,3.7,��
2020/09/16,06:00,0.661,0.941,0.605,1.163,0.832,0.385,0.671,0.632,�k�k��,3.0,��
2020/09/16,06:10,0.663,0.943,0.606,1.166,0.833,0.385,0.671,0.633,�k�k��,3.4,��
2020/09/16,06:20,0.664,0.940,0.605,1.163,0.833,0.386,0.674,0.634,�k�k��,3.6,��
2020/09/16,06:30,0.661,0.941,0.606,1.165,0.832,0.385,0.671,0.632,�k�k��,3.1,��
2020/09/16,06:40,0.664,0.939,0.607,1.164,0.830,0.385,0.674,0.633,�k�k��,4.0,��
2020/09/16,06:50,0.664,0.940,0.608,1.163,0.833,0.384,0.672,0.632,�k�k��,3.4,��
2020/09/16,07:00,0.661,0.941,0.606,1.166,0.833,0.385,0.673,0.633,�k�k��,3.5,��
2020/09/16,07:10,0.663,0.940,0.608,1.164,0.833,0.385,0.673,0.633,�k�k��,3.3,��
2020/09/16,07:20,0.663,0.944,0.606,1.166,0.830,0.385,0.674,0.632,�k�k��,2.8,��
2020/09/16,07:30,0.665,0.942,0.602,1.164,0.831,0.384,0.673,0.631,�k�k��,2.3,��
2020/09/16,07:40,0.666,0.941,0.599,1.165,0.832,0.383,0.674,0.633,�k,2.0,��
2020/09/16,07:50,0.665,0.943,0.601,1.167,0.832,0.383,0.672,0.632,�k,2.0,��
2020/09/16,08:00,0.665,0.940,0.598,1.164,0.833,0.384,0.673,0.634,�k��,2.5,��
2020/09/16,08:10,0.663,0.939,0.599,1.166,0.831,0.383,0.672,0.633,�k��,3.1,��
2020/09/16,08:20,0.663,0.940,0.601,1.164,0.831,0.383,0.670,0.632,�k�k��,2.9,��
2020/09/16,08:30,0.661,0.939,0.600,1.163,0.830,0.382,0.671,0.630,�k�k��,2.6,��
2020/09/16,08:40,0.662,0.938,0.600,1.167,0.831,0.383,0.671,0.629,�k�k��,2.2,��
2020/09/16,08:50,0.662,0.936,0.600,1.164,0.831,0.382,0.673,0.630,�k��,2.0,��
2020/09/16,09:00,0.664,0.939,0.600,1.165,0.833,0.382,0.672,0.631,�k��,2.6,��
2020/09/16,09:10,0.663,0.936,0.605,1.166,0.832,0.384,0.671,0.630,�k�k��,3.3,��
2020/09/16,09:20,0.662,0.936,0.602,1.165,0.834,0.383,0.670,0.632,�k�k��,2.6,��
2020/09/16,09:30,0.664,0.936,0.603,1.167,0.834,0.383,0.672,0.630,�k�k��,3.3,��
2020/09/16,09:40,0.664,0.938,0.601,1.165,0.831,0.383,0.672,0.632,�k�k��,2.6,��
2020/09/16,09:50,0.664,0.935,0.601,1.167,0.830,0.384,0.672,0.631,�k�k��,2.6,��
2020/09/16,10:00,0.665,0.937,0.603,1.166,0.833,0.383,0.671,0.631,���k��,2.6,��
2020/09/16,10:10,0.665,0.938,0.604,1.163,0.833,0.383,0.673,0.630,���k��,2.6,��
2020/09/16,10:20,0.665,0.937,0.602,1.164,0.833,0.384,0.672,0.633,���k��,2.9,��
2020/09/16,10:30,0.664,0.937,0.602,1.165,0.833,0.383,0.674,0.631,�k��,2.8,��
2020/09/16,10:40,0.665,0.938,0.603,1.164,0.831,0.383,0.672,0.632,�k��,2.9,��
2020/09/16,10:50,0.664,0.941,0.605,1.166,0.833,0.385,0.672,0.633,�k��,2.8,��
2020/09/16,11:00,0.664,0.940,0.603,1.165,0.833,0.383,0.672,0.631,�k��,3.0,��
2020/09/16,11:10,0.665,0.940,0.603,1.167,0.834,0.384,0.672,0.634,�k��,2.8,��
2020/09/16,11:20,0.663,0.940,0.604,1.167,0.834,0.384,0.672,0.630,�k��,3.5,��
2020/09/16,11:30,0.664,0.940,0.603,1.165,0.835,0.385,0.673,0.631,�k��,2.8,��
2020/09/16,11:40,0.665,0.940,0.603,1.163,0.834,0.384,0.673,0.633,���k��,3.1,��
2020/09/16,11:50,0.665,0.944,0.604,1.162,0.837,0.385,0.671,0.631,�k��,3.1,��
2020/09/16,12:00,0.666,0.945,0.601,1.166,0.835,0.384,0.671,0.630,�k��,3.4,��
2020/09/16,12:10,0.665,0.945,0.600,1.166,0.837,0.384,0.673,0.632,�k��,3.4,��
2020/09/16,12:20,0.664,0.948,0.598,1.167,0.837,0.384,0.674,0.631,�k��,2.9,��
2020/09/16,12:30,0.666,0.947,0.601,1.164,0.835,0.384,0.672,0.632,���k��,3.1,��
2020/09/16,12:40,0.665,0.944,0.601,1.167,0.836,0.383,0.674,0.633,�k��,3.9,��
2020/09/16,12:50,0.664,0.947,0.604,1.169,0.839,0.385,0.672,0.631,���k��,3.6,��
2020/09/16,13:00,0.665,0.944,0.604,1.168,0.837,0.384,0.675,0.630,�k��,3.9,��
2020/09/16,13:10,0.665,0.945,0.606,1.168,0.838,0.384,0.673,0.632,���k��,3.8,��
2020/09/16,13:20,0.665,0.944,0.607,1.169,0.836,0.383,0.672,0.631,���k��,3.5,��
2020/09/16,13:30,0.666,0.943,0.607,1.168,0.839,0.385,0.674,0.631,���k��,3.3,��
2020/09/16,13:40,0.665,0.943,0.608,1.167,0.837,0.383,0.675,0.633,���k��,3.4,��
2020/09/16,13:50,0.666,0.944,0.610,1.168,0.838,0.383,0.675,0.633,���k��,3.8,��
2020/09/16,14:00,0.666,0.943,0.611,1.167,0.839,0.384,0.673,0.632,���k��,3.5,��
2020/09/16,14:10,0.664,0.943,0.611,1.169,0.838,0.386,0.674,0.632,���k��,3.3,��
2020/09/16,14:20,0.666,0.943,0.611,1.169,0.838,0.386,0.674,0.631,���k��,2.9,��
2020/09/16,14:30,0.664,0.945,0.609,1.167,0.838,0.383,0.672,0.633,�k��,2.6,��
2020/09/16,14:40,0.666,0.942,0.610,1.170,0.837,0.384,0.672,0.631,�k��,2.3,��
2020/09/16,14:50,0.665,0.944,0.609,1.168,0.837,0.383,0.674,0.631,���k��,2.6,��
2020/09/16,15:00,0.665,0.945,0.609,1.169,0.836,0.385,0.674,0.632,���k��,2.3,��
2020/09/16,15:10,0.665,0.942,0.610,1.168,0.838,0.384,0.673,0.632,���k��,2.0,��
2020/09/16,15:20,0.666,0.945,0.609,1.167,0.838,0.384,0.673,0.631,���k��,1.9,��
2020/09/16,15:30,0.665,0.947,0.608,1.169,0.838,0.384,0.673,0.632,���k��,1.7,��
2020/09/16,15:40,0.664,0.948,0.608,1.170,0.839,0.384,0.673,0.631,���k��,1.9,��
2020/09/16,15:50,0.664,0.947,0.608,1.167,0.838,0.384,0.673,0.631,�k��,1.7,��
2020/09/16,16:00,0.665,0.948,0.608,1.169,0.840,0.384,0.672,0.632,���k��,1.2,��
2020/09/16,16:10,0.664,0.947,0.611,1.170,0.840,0.384,0.674,0.632,���k��,1.2,��
2020/09/16,16:20,0.665,0.952,0.609,1.170,0.841,0.386,0.674,0.633,�k��,1.4,�L
2020/09/16,16:30,0.666,0.950,0.612,1.171,0.839,0.386,0.673,0.633,�k�k��,1.4,��
2020/09/16,16:40,0.665,0.953,0.612,1.169,0.839,0.385,0.674,0.633,���k��,1.2,��
2020/09/16,16:50,0.667,0.951,0.611,1.169,0.839,0.385,0.675,0.633,�k��,1.2,�L
2020/09/16,17:00,0.666,0.951,0.612,1.172,0.841,0.385,0.675,0.633,���k��,1.4,�L
2020/09/16,17:10,0.668,0.954,0.612,1.169,0.842,0.386,0.675,0.633,���k��,1.2,��
2020/09/16,17:20,0.665,0.952,0.613,1.172,0.842,0.386,0.675,0.635,�k��,1.7,�L
2020/09/16,17:30,0.666,0.953,0.611,1.170,0.841,0.386,0.675,0.634,���k��,1.4,�L
2020/09/16,17:40,0.669,0.949,0.612,1.172,0.842,0.386,0.675,0.635,���k��,1.5,�L
2020/09/16,17:50,0.667,0.950,0.613,1.171,0.840,0.385,0.674,0.633,�k��,1.5,�L
2020/09/16,18:00,0.668,0.951,0.614,1.172,0.841,0.386,0.675,0.634,���k��,1.5,��
2020/09/16,18:10,0.666,0.951,0.612,1.168,0.840,0.387,0.676,0.636,��,1.2,��
2020/09/16,18:20,0.666,0.951,0.611,1.173,0.839,0.385,0.674,0.635,�k�k��,1.1,��
2020/09/16,18:30,0.668,0.953,0.613,1.171,0.839,0.385,0.675,0.634,���k��,0.8,��
2020/09/16,18:40,0.668,0.950,0.612,1.170,0.841,0.387,0.674,0.633,-,CALM,��
2020/09/16,18:50,0.664,0.953,0.613,1.170,0.840,0.386,0.675,0.634,���k��,0.6,�L
2020/09/16,19:00,0.667,0.951,0.611,1.170,0.841,0.387,0.674,0.635,�k��,1.2,�L
2020/09/16,19:10,0.668,0.951,0.611,1.171,0.840,0.386,0.675,0.635,���k��,0.9,�L
2020/09/16,19:20,0.668,0.952,0.612,1.170,0.842,0.385,0.674,0.634,���k��,0.8,��
2020/09/16,19:30,0.667,0.950,0.611,1.169,0.840,0.385,0.673,0.633,���쓌,1.1,��
2020/09/16,19:40,0.667,0.955,0.614,1.172,0.840,0.387,0.675,0.635,�k,0.8,��
2020/09/16,19:50,0.668,0.953,0.612,1.171,0.841,0.385,0.675,0.634,���k��,0.6,��
2020/09/16,20:00,0.667,0.949,0.613,1.173,0.840,0.385,0.676,0.634,���k��,0.6,��
2020/09/16,20:10,0.666,0.944,0.612,1.173,0.842,0.385,0.674,0.633,���쓌,0.6,��
2020/09/16,20:20,0.667,0.952,0.613,1.171,0.843,0.386,0.674,0.634,-,CALM,��
2020/09/16,20:30,0.667,0.951,0.614,1.172,0.841,0.386,0.673,0.635,-,CALM,��
2020/09/16,20:40,0.666,0.952,0.612,1.172,0.842,0.385,0.674,0.634,���k��,0.6,��
2020/09/16,20:50,0.666,0.953,0.613,1.171,0.843,0.386,0.673,0.635,�k��,0.9,��
2020/09/16,21:00,0.669,0.951,0.612,1.171,0.843,0.386,0.674,0.633,�k�k��,0.6,��
2020/09/16,21:10,0.665,0.952,0.613,1.170,0.841,0.386,0.672,0.634,�k�k��,0.6,��
2020/09/16,21:20,0.668,0.950,0.612,1.171,0.842,0.385,0.675,0.635,�k�k��,0.6,��
2020/09/16,21:30,0.667,0.948,0.612,1.171,0.843,0.386,0.673,0.634,�k��,0.8,��
2020/09/16,21:40,0.667,0.950,0.614,1.172,0.842,0.385,0.676,0.635,�k,0.9,��
2020/09/16,21:50,0.668,0.949,0.612,1.170,0.840,0.386,0.675,0.635,�k,1.1,��
2020/09/16,22:00,0.669,0.950,0.613,1.171,0.842,0.386,0.675,0.634,�k�k��,0.6,��
2020/09/16,22:10,0.668,0.949,0.613,1.170,0.839,0.387,0.673,0.632,�k,0.9,��
2020/09/16,22:20,0.667,0.950,0.613,1.172,0.840,0.386,0.675,0.635,�k��,1.1,�L
2020/09/16,22:30,0.667,0.953,0.612,1.169,0.842,0.387,0.675,0.635,-,CALM,��
2020/09/16,22:40,0.667,0.953,0.612,1.171,0.841,0.386,0.674,0.634,-,CALM,��
2020/09/16,22:50,0.668,0.949,0.612,1.170,0.841,0.386,0.673,0.635,�k��,0.6,��
2020/09/16,23:00,0.665,0.951,0.613,1.169,0.842,0.386,0.675,0.637,�k��,0.8,��
2020/09/16,23:10,0.666,0.952,0.612,1.173,0.844,0.388,0.675,0.633,���k��,0.9,��
2020/09/16,23:20,0.667,0.952,0.612,1.171,0.844,0.387,0.675,0.634,���k��,1.2,��
2020/09/16,23:30,0.667,0.952,0.611,1.171,0.843,0.387,0.674,0.633,�k��,1.4,��
2020/09/16,23:40,0.669,0.952,0.611,1.171,0.842,0.386,0.675,0.634,�k�k��,1.1,��
2020/09/16,23:50,0.667,0.951,0.610,1.173,0.842,0.386,0.675,0.633,�k�k��,1.4,��
